Location: Unspecified
(0.0000°N, 0.0000°E)
Time: 06:31:43
(UTC+00:00)

S-56A Canister/Altair - Pass Details

Date: 22 November 2019
Orbit: 633 x 2499 km, 38.9° (Epoch: 10 December)

Event Time Altitude Azimuth Distance (km) Brightness Sun altitude
Rises 11:16:35 0° 220° (SW) 5,867 12.2 68.6°
Reaches altitude 10° 11:20:21 10° 216° (SW) 4,997 12.0 68.9°
Maximum altitude 11:35:03 61° 138° (SE) 2,717 12.2 69.7°
Drops below altitude 10° 11:48:41 10° 61° (ENE) 4,688 11.6 69.9°
Sets 11:52:02 0° 58° (ENE) 5,499 11.8 69.8°
